[[{"header":{"parameterUnit":"m.s-1","parameterCategory":1,"la1":30.2991,"la2":30.254,"lo1":-89.0895,"lo2":-89.0444,"dy":0.0017,"dx":0.0017,"nx":28,"ny":28,"refTime":"2025-07-12T21:00:00:Z","depth":0,"parameterNumber":2,"parameterNumberName":"U-component_of_WINDS"},"data":[0,0,0,0,0,0,0,0,0,0,0,0,0,0,0,0,0,0,0,0,0,0,0,0,0,0,0,0,0,0,0,0,0,0,0,0,0,0,0,0,0,0,0,0,0,0,0,0,0,0,0,0,0,0,0,0,0,0,1.5042,1.5043,0,1.5096,1.5096,1.5097,1.5103,1.5103,1.5102,1.5102,1.5158,1.516,1.5162,0,0,0,0,0,0,0,0,0,0,0,0,0,1.4947,1.4949,1.5042,1.5043,1.5044,1.5096,1.5096,1.5097,1.5103,1.5103,1.5102,1.5102,1.5157,1.516,1.5162,0,0,0,0,0,0,0,0,0,0,0,0,0,1.4993,1.4949,1.5042,1.5053,1.5055,1.5096,1.5096,1.5097,1.5104,1.5103,1.5102,1.5101,1.5156,1.5159,1.5162,1.5197,0,0,1.5171,1.5173,0,0,0,0,0,0,0,0,1.4991,1.4997,1.5051,1.5052,1.5054,1.5092,1.5083,1.5131,1.5104,1.5085,1.5102,1.5101,1.5137,1.5141,1.5153,1.5199,1.5202,1.5172,1.5173,1.5175,1.5176,0,0,0,0,0,0,0,1.4987,1.4995,1.5064,1.5052,1.5054,1.5056,1.5061,1.5092,1.5115,1.5087,1.5087,1.5093,1.5137,1.515,1.5154,1.5202,1.5172,1.5174,1.5176,1.5177,1.5279,1.528,0,0,0,0,0,0,1.4982,1.4992,1.5062,1.5065,1.502,1.5058,1.5064,1.5081,1.5114,1.5119,1.5094,1.5093,1.5145,1.5151,1.5156,1.5199,1.5175,1.5177,1.5179,1.5278,1.5279,1.528,0,0,0,0,0,0,1.498,1.4988,1.506,1.5029,1.5038,1.5061,1.5079,1.5082,1.5095,1.512,1.5124,1.5103,1.5145,1.5152,1.5186,1.5201,1.5179,1.5182,1.5277,1.5279,1.528,1.5283,0,0,0,0,0,0,1.4977,1.4987,1.5,1.5029,1.504,1.5088,1.508,1.5084,1.51,1.51,1.5129,1.5133,1.5145,1.5182,1.5189,1.5204,1.5184,1.5276,1.5278,1.5279,1.5282,1.5285,1.5287,0,0,0,0,0,1.4974,1.5,1.5001,1.5009,1.5056,1.5089,1.5095,1.5108,1.5101,1.5114,1.513,1.5133,1.5198,1.5185,1.5194,1.521,1.5275,1.5277,1.5279,1.5281,1.5284,1.5287,0,0,0,0,0,0,1.4973,1.5004,1.5005,1.5041,1.5062,1.509,1.5107,1.5111,1.5135,1.5134,1.5148,1.5155,1.5189,1.5203,1.5188,1.5245,1.5236,1.524,1.5234,1.5237,1.524,1.5236,1.5186,0,0,0,0,0,1.4977,1.5,1.5026,1.5055,1.5066,1.5085,1.51,1.5107,1.513,1.5139,1.5158,1.518,1.5206,1.5223,1.5248,1.5284,1.5291,1.5299,1.5302,1.5304,1.5307,1.5327,1.5331,1.5287,1.5287,1.5287,0,0,1.4985,1.5005,1.5019,1.5056,1.5073,1.5098,1.5092,1.5119,1.5137,1.5144,1.5177,1.5191,1.5217,1.5253,1.5269,1.5265,1.532,1.5306,1.5308,1.531,1.533,1.5334,1.5337,1.5289,1.5288,1.5288,0,0,1.5013,1.503,1.5056,1.5073,1.51,1.5112,1.5118,1.5146,1.5155,1.5189,1.5194,1.5216,1.526,1.5278,1.5293,1.5328,1.533,1.5336,1.5348,1.5368,1.5371,1.5374,1.5386,1.5391,1.5339,1.5339,1.5339,0,1.502,1.5057,1.5069,1.5095,1.5111,1.5117,1.5144,1.516,1.5194,1.5205,1.52,1.5255,1.5273,1.5312,1.5321,1.5333,1.5341,1.5332,1.537,1.5373,1.5376,1.5388,1.5392,1.5339,1.5339,1.5339,1.5339,0,1.5064,1.509,1.5108,1.5139,1.5157,1.5183,1.52,1.5217,1.5223,1.5236,1.527,1.5292,1.5321,1.5331,1.5337,1.5372,1.5368,1.5366,1.5358,1.538,1.5392,1.5396,1.534,1.5339,1.5339,1.5339,0,0,1.5093,1.513,1.5137,1.5151,1.518,1.52,1.5227,1.5255,1.5269,1.5292,1.5315,1.5352,1.535,1.5367,1.5376,1.5393,1.5418,1.5389,1.539,1.5393,1.5457,1.5458,1.5463,1.542,1.5421,1.5422,1.5455,0,1.5124,1.5171,1.5182,1.5223,1.5246,1.5253,1.5276,1.5297,1.5309,1.5332,1.5346,1.5372,1.5368,1.5378,1.5395,1.5412,1.5431,1.5409,1.5442,1.5443,1.5435,1.5469,1.547,1.55,1.5459,1.546,1.5461,0,1.5166,1.5189,1.5231,1.5257,1.5268,1.5288,1.5315,1.5336,1.536,1.5368,1.5387,1.5394,1.5422,1.5412,1.5451,1.5436,1.545,1.546,1.5461,1.5465,1.5453,1.5473,1.551,1.5515,1.5468,1.5467,1.5467,0,1.5182,1.5224,1.5255,1.5267,1.5298,1.5312,1.5326,1.5349,1.5365,1.5388,1.5399,1.5426,1.544,1.5461,1.5475,1.5466,1.5513,1.5504,1.5521,1.552,1.553,1.5529,1.557,1.5539,1.5539,1.5539,1.5539,0,1.5215,1.5241,1.5262,1.5281,1.531,1.5324,1.5352,1.5366,1.5386,1.5408,1.5415,1.5436,1.5453,1.5476,1.5487,1.5518,1.5525,1.5532,1.5535,1.5531,1.553,1.5541,1.5539,1.554,1.554,1.554,1.554,0,1.5238,1.5253,1.5287,1.5314,1.5321,1.5341,1.5364,1.5383,1.5396,1.5424,1.5431,1.5452,1.5479,1.5495,1.553,1.5537,1.5571,1.5573,1.5563,1.5564,1.5579,1.5578,1.5628,1.5635,1.56,1.56,1.5601,0,1.5258,1.5278,1.5307,1.5321,1.5335,1.5359,1.5376,1.539,1.5407,1.5435,1.545,1.5478,1.5501,1.5544,1.5563,1.5589,1.5592,1.5607,1.5596,1.5592,1.5592,1.559,1.5592,1.5609,1.561,1.561,1.561,0,1.5292,1.5298,1.5321,1.5347,1.5366,1.5388,1.5409,1.542,1.5438,1.5457,1.5484,1.5502,1.5537,1.5565,1.5593,1.5607,1.5612,1.5614,1.5619,1.5615,1.5608,1.5612,1.5568,1.5612,1.5612,1.5612,1.5612,1.5612,1.5314,1.5332,1.5354,1.538,1.5397,1.5416,1.5435,1.545,1.5474,1.5503,1.551,1.5539,1.5562,1.56,1.5616,1.5639,1.5636,1.5644,1.5646,1.5647,1.5647,1.5605,1.5644,1.5644,1.5644,1.5644,1.5644,0,1.5348,1.5363,1.5386,1.5415,1.5435,1.5437,1.546,1.5477,1.5502,1.5523,1.5545,1.5577,1.5604,1.5624,1.5651,1.5666,1.5669,1.5673,1.5672,1.5675,1.5648,1.5641,1.567,1.567,1.567,1.567,1.567,1.567,1.5368,1.5398,1.5407,1.5446,1.5461,1.5489,1.5502,1.552,1.5537,1.5572,1.5594,1.5606,1.5627,1.5656,1.5681,1.5686,1.5696,1.5699,1.5705,1.568,1.5677,1.5674,1.5667,1.5701,1.5701,1.5729,1.573,1.573]},{"header":{"parameterUnit":"m.s-1","parameterCategory":1,"la1":30.2991,"la2":30.254,"lo1":-89.0895,"lo2":-89.0444,"dy":0.0017,"dx":0.0017,"nx":28,"ny":28,"refTime":"2025-07-12T21:00:00:Z","depth":0,"parameterNumber":3,"parameterNumberName":"V-component_of_WINDS"},"data":[0,0,0,0,0,0,0,0,0,0,0,0,0,0,0,0,0,0,0,0,0,0,0,0,0,0,0,0,0,0,0,0,0,0,0,0,0,0,0,0,0,0,0,0,0,0,0,0,0,0,0,0,0,0,0,0,0,0,1.0893,1.0892,0,1.0801,1.08,1.0799,1.0752,1.0752,1.0752,1.0752,1.0653,1.065,1.0648,0,0,0,0,0,0,0,0,0,0,0,0,0,1.1025,1.1023,1.0893,1.0892,1.0891,1.0801,1.08,1.0799,1.0752,1.0752,1.0752,1.0752,1.0654,1.0651,1.0648,0,0,0,0,0,0,0,0,0,0,0,0,0,1.0954,1.1022,1.0894,1.0857,1.0853,1.0801,1.08,1.0798,1.0752,1.0752,1.0752,1.0752,1.0655,1.0651,1.0647,1.0624,0,0,1.0635,1.0634,0,0,0,0,0,0,0,0,1.0958,1.0949,1.0864,1.086,1.0855,1.0788,1.081,1.0739,1.0752,1.079,1.0752,1.0752,1.0698,1.069,1.0673,1.0619,1.0615,1.0635,1.0633,1.0631,1.063,0,0,0,0,0,0,0,1.0963,1.0952,1.0857,1.0862,1.0857,1.0844,1.0834,1.0796,1.0745,1.0787,1.0783,1.0773,1.0695,1.0677,1.067,1.0613,1.0635,1.0632,1.0629,1.0628,1.0534,1.0534,0,0,0,0,0,0,1.0974,1.0957,1.086,1.0854,1.0907,1.0842,1.083,1.0809,1.0745,1.0736,1.0773,1.0771,1.0683,1.0675,1.0667,1.0634,1.0631,1.0627,1.0625,1.0534,1.0534,1.0534,0,0,0,0,0,0,1.0977,1.0966,1.0863,1.0904,1.089,1.0839,1.0816,1.0808,1.0789,1.0735,1.0725,1.0764,1.0683,1.0672,1.0635,1.063,1.0625,1.0622,1.0534,1.0534,1.0534,1.0569,0,0,0,0,0,0,1.0981,1.0967,1.0959,1.0905,1.0888,1.0835,1.0816,1.0806,1.0783,1.078,1.0724,1.0715,1.0682,1.0641,1.0631,1.0624,1.0619,1.0534,1.0534,1.0534,1.0568,1.057,1.0572,0,0,0,0,0,1.0986,1.0972,1.0959,1.0947,1.0877,1.0834,1.0825,1.0789,1.0783,1.0773,1.0738,1.0716,1.0632,1.0637,1.0626,1.0618,1.0534,1.0534,1.0534,1.0567,1.057,1.0572,0,0,0,0,0,0,1.1025,1.0964,1.0949,1.0917,1.0882,1.0827,1.0813,1.0793,1.0757,1.0755,1.0711,1.0699,1.0665,1.0638,1.0645,1.0591,1.0581,1.0578,1.061,1.0612,1.0614,1.0621,1.0616,0,0,0,0,0,1.1031,1.1003,1.095,1.0927,1.091,1.0865,1.0845,1.082,1.0781,1.0765,1.0728,1.0689,1.0654,1.0632,1.0596,1.0564,1.055,1.0553,1.0555,1.0556,1.0554,1.0534,1.0534,1.0533,1.0533,1.0533,0,0,1.1041,1.1004,1.0989,1.0934,1.0903,1.0874,1.0852,1.0822,1.0799,1.076,1.0723,1.0694,1.0648,1.0613,1.0596,1.0589,1.0552,1.0556,1.0558,1.0555,1.0534,1.0534,1.0534,1.0533,1.0533,1.0533,0,0,1.1044,1.1014,1.0991,1.0961,1.0916,1.0886,1.088,1.0828,1.0808,1.077,1.074,1.0711,1.0652,1.062,1.0596,1.0587,1.0565,1.0576,1.0586,1.0567,1.0567,1.0567,1.0563,1.0562,1.0575,1.0575,1.0575,0,1.1062,1.1018,1.0981,1.0953,1.0929,1.0894,1.0869,1.0841,1.0786,1.077,1.0764,1.0688,1.0654,1.0611,1.0609,1.0591,1.0582,1.0582,1.057,1.057,1.0569,1.0564,1.0563,1.0576,1.0576,1.0576,1.0576,0,1.1041,1.1011,1.0997,1.0947,1.0921,1.0895,1.0853,1.0831,1.0809,1.0779,1.074,1.0699,1.0654,1.0642,1.062,1.0595,1.0593,1.0579,1.0568,1.0571,1.0566,1.0564,1.0579,1.0578,1.0578,1.0577,0,0,1.1066,1.0996,1.0992,1.0968,1.0915,1.089,1.0861,1.0819,1.0801,1.0764,1.0738,1.0688,1.0675,1.0648,1.0621,1.0604,1.0598,1.0592,1.059,1.0594,1.0568,1.0578,1.0577,1.0584,1.0583,1.0583,1.0571,0,1.1061,1.101,1.0977,1.0938,1.0909,1.0875,1.0849,1.0813,1.0785,1.0755,1.0722,1.0688,1.0673,1.0657,1.0639,1.0603,1.0592,1.0604,1.0558,1.0557,1.057,1.0574,1.0585,1.0576,1.0569,1.0569,1.0569,0,1.1049,1.1014,1.0973,1.0923,1.091,1.0888,1.0846,1.0818,1.0776,1.0756,1.0726,1.0699,1.0666,1.0658,1.0611,1.0619,1.0598,1.0578,1.0576,1.057,1.0563,1.0568,1.0573,1.0571,1.0565,1.0566,1.0566,0,1.1071,1.1013,1.0981,1.0962,1.0903,1.0888,1.0863,1.0821,1.0797,1.076,1.0744,1.0703,1.068,1.0648,1.061,1.0609,1.0567,1.0556,1.0548,1.0549,1.054,1.0541,1.0541,1.0528,1.0528,1.0528,1.0528,0,1.1068,1.1044,1.099,1.097,1.0942,1.0903,1.0875,1.0847,1.081,1.0782,1.075,1.0725,1.0677,1.0645,1.0615,1.058,1.057,1.0552,1.0544,1.0554,1.0557,1.054,1.0539,1.0528,1.0528,1.0528,1.0528,0,1.1087,1.105,1.1013,1.0961,1.0947,1.0928,1.0882,1.0861,1.0831,1.0797,1.0786,1.0738,1.0699,1.0659,1.0606,1.0585,1.0551,1.054,1.0566,1.0561,1.0555,1.0556,1.0544,1.054,1.0531,1.0531,1.0531,0,1.1088,1.1069,1.1015,1.0995,1.0971,1.0939,1.0915,1.0876,1.0852,1.0802,1.0786,1.0746,1.0711,1.065,1.0609,1.0568,1.0556,1.0554,1.0549,1.056,1.0555,1.0556,1.0554,1.0556,1.0556,1.0557,1.0557,0,1.1093,1.1076,1.1043,1.1004,1.0977,1.0944,1.091,1.0895,1.0848,1.0823,1.0783,1.0757,1.0703,1.0662,1.0616,1.0588,1.0564,1.0559,1.0555,1.0565,1.058,1.0571,1.057,1.0559,1.0559,1.0559,1.0559,1.0558,1.1102,1.1083,1.1042,1.1007,1.0977,1.0946,1.0923,1.0891,1.0858,1.0812,1.079,1.0751,1.0708,1.0644,1.0616,1.0583,1.0576,1.0571,1.0569,1.0568,1.057,1.0586,1.0575,1.0575,1.0575,1.0575,1.0574,0,1.1105,1.1077,1.1045,1.0999,1.097,1.0952,1.0913,1.089,1.0857,1.0819,1.0786,1.074,1.0701,1.0657,1.0614,1.0596,1.0584,1.0586,1.0587,1.0581,1.0579,1.0587,1.0597,1.0597,1.0597,1.0597,1.0597,1.0597,1.1103,1.107,1.1048,1.0999,1.0971,1.0933,1.0912,1.0883,1.0853,1.0804,1.0771,1.0744,1.0703,1.0657,1.0619,1.0607,1.0593,1.0598,1.0583,1.0582,1.0581,1.0579,1.0586,1.0595,1.0595,1.0586,1.0586,1.0586]}]]